Weather History for Ortonville, MN

Change the Weather History Date:

Monday, January 7, 2013

  Actual Average (KAQP) Record (KAQP)
Temperature  
Mean Temperature 30 °F -  
Max Temperature 37 °F 19 °F 50 °F (2003)
Min Temperature 23 °F 3 °F -18 °F (1997)
Degree Days  
Heating Degree Days 35    
Moisture  
Dew Point 20 °F    
Average Humidity 66    
Maximum Humidity 80    
Minimum Humidity 56    
Precipitation  
Precipitation 0.00 in - - ()
Sea Level Pressure  
Sea Level Pressure 29.87 in    
Wind  
Wind Speed 6 mph (West)    
Max Wind Speed 13 mph    
Max Gust Speed 17 mph    
Visibility 10 miles    
Events      
Averages and records for this station are not official NWS values.
T = Trace of Precipitation, MM = Missing Value Source: NWS Daily Summary

Daily Weather History Graph

Daily Weather History Graph

Search for Another Location

Airport:

Trip Planner

Search our weather history database for the weather conditions in past years. The results will help you decide how hot, cold, wet, or windy it might be!

Date:

Astronomy

Jan. 07, 2013 Rise Set
Actual Time 8:04 AM CST 5:00 PM CST
Civil Twilight 7:30 AM CST 5:33 PM CST
Nautical Twilight 6:53 AM CST 6:10 PM CST
Astronomical Twilight 6:18 AM CST 6:46 PM CST
Moon 3:26 AM CST (1/7) 1:14 PM CST (1/7)
Length of Visible Light 10h 02m
Length of Day
8h 55m
Waning Crescent, 22% of the Moon is Illuminated
Jan 7
Waning Crescent
Jan 11
New
Jan 18
First Quarter
Jan 26
Full
Feb 3
Last Quarter

Hourly Weather History & Observations

Time (CST) Temp. Windchill Dew Point Humidity Pressure Visibility Wind Dir Wind Speed Gust Speed Precip Events Conditions
12:14 AM 24.8 °F 17.9 °F 17.6 °F 74% 29.80 in 10.0 mi South 5.8 mph - N/A   Clear
12:33 AM 28.4 °F 20.4 °F 19.4 °F 69% 29.80 in 10.0 mi SSW 8.1 mph - N/A   Clear
12:54 AM 28.4 °F 24.6 °F 19.4 °F 69% 29.80 in 10.0 mi SW 3.5 mph - N/A   Clear
1:14 AM 30.2 °F 25.4 °F 19.4 °F 64% 29.79 in 10.0 mi West 4.6 mph 17.3 mph N/A   Clear
1:33 AM 30.2 °F 24.3 °F 21.2 °F 69% 29.79 in 10.0 mi SW 5.8 mph - N/A   Clear
1:54 AM 28.4 °F 22.2 °F 19.4 °F 69% 29.79 in 10.0 mi SSW 5.8 mph - N/A   Clear
2:13 AM 28.4 °F - 19.4 °F 69% 29.79 in 10.0 mi Calm Calm - N/A   Clear
2:34 AM 26.6 °F 22.6 °F 19.4 °F 74% 29.79 in 10.0 mi WSW 3.5 mph - N/A   Clear
2:54 AM 26.6 °F 20.0 °F 19.4 °F 74% 29.80 in 10.0 mi WSW 5.8 mph - N/A   Clear
3:13 AM 28.4 °F 21.2 °F 19.4 °F 69% 29.80 in 10.0 mi West 6.9 mph - N/A   Clear
3:34 AM 28.4 °F 23.3 °F 19.4 °F 69% 29.81 in 10.0 mi WNW 4.6 mph - N/A   Clear
3:54 AM 28.4 °F 22.2 °F 19.4 °F 69% 29.80 in 10.0 mi West 5.8 mph - N/A   Clear
4:14 AM 26.6 °F 21.2 °F 19.4 °F 74% 29.81 in 10.0 mi West 4.6 mph - N/A   Clear
4:34 AM 26.6 °F 22.6 °F 19.4 °F 74% 29.80 in 10.0 mi WSW 3.5 mph - N/A   Clear
4:53 AM 26.6 °F - 19.4 °F 74% 29.81 in 10.0 mi Calm Calm - N/A   Clear
5:14 AM 26.6 °F - 19.4 °F 74% 29.82 in 10.0 mi Calm Calm - N/A   Clear
5:34 AM 26.6 °F 19.1 °F 17.6 °F 69% 29.82 in 10.0 mi WSW 6.9 mph - N/A   Clear
5:53 AM 26.6 °F 20.0 °F 17.6 °F 69% 29.82 in 10.0 mi WSW 5.8 mph - N/A   Clear
6:14 AM 26.6 °F - 19.4 °F 74% 29.82 in 10.0 mi Calm Calm - N/A   Clear
6:34 AM 28.4 °F 21.2 °F 19.4 °F 69% 29.82 in 10.0 mi SW 6.9 mph - N/A   Clear
6:54 AM 28.4 °F - 19.4 °F 69% 29.83 in 10.0 mi Calm Calm - N/A   Mostly Cloudy
7:14 AM 28.4 °F 20.4 °F 19.4 °F 69% 29.83 in 10.0 mi West 8.1 mph - N/A   Scattered Clouds
7:34 AM 30.2 °F 21.9 °F 19.4 °F 64% 29.84 in 10.0 mi West 9.2 mph - N/A   Scattered Clouds
7:54 AM 30.2 °F 23.4 °F 19.4 °F 64% 29.84 in 10.0 mi West 6.9 mph - N/A   Clear
8:14 AM 32.0 °F 24.8 °F 21.2 °F 64% 29.85 in 10.0 mi West 8.1 mph - N/A   Clear
8:33 AM 33.8 °F 25.8 °F 19.4 °F 56% 29.86 in 10.0 mi West 10.4 mph - N/A   Clear
8:54 AM 32.0 °F 26.4 °F 21.2 °F 64% 29.87 in 10.0 mi West 5.8 mph - N/A   Clear
9:14 AM 32.0 °F 25.6 °F 21.2 °F 64% 29.88 in 10.0 mi West 6.9 mph - N/A   Clear
9:34 AM 33.8 °F 26.4 °F 21.2 °F 60% 29.88 in 10.0 mi WNW 9.2 mph - N/A   Clear
9:54 AM 33.8 °F 27.7 °F 21.2 °F 60% 29.89 in 10.0 mi West 6.9 mph - N/A   Clear
10:14 AM 33.8 °F 26.4 °F 21.2 °F 60% 29.90 in 10.0 mi West 9.2 mph - N/A   Clear
10:34 AM 33.8 °F 25.8 °F 21.2 °F 60% 29.91 in 10.0 mi West 10.4 mph - N/A   Clear
10:54 AM 33.8 °F 25.8 °F 21.2 °F 60% 29.90 in 10.0 mi West 10.4 mph - N/A   Clear
11:13 AM 33.8 °F 26.4 °F 21.2 °F 60% 29.90 in 10.0 mi West 9.2 mph - N/A   Clear
11:34 AM 33.8 °F 26.4 °F 21.2 °F 60% 29.89 in 10.0 mi West 9.2 mph - N/A   Clear
11:53 AM 35.6 °F 28.0 °F 21.2 °F 56% 29.89 in 10.0 mi West 10.4 mph - N/A   Clear
12:14 PM 35.6 °F 28.0 °F 21.2 °F 56% 29.88 in 10.0 mi West 10.4 mph - N/A   Clear
12:34 PM 35.6 °F 29.9 °F 21.2 °F 56% 29.88 in 10.0 mi West 6.9 mph - N/A   Clear
12:53 PM 35.6 °F 29.9 °F 21.2 °F 56% 29.87 in 10.0 mi WSW 6.9 mph - N/A   Clear
1:14 PM 35.6 °F 31.7 °F 23.0 °F 60% 29.87 in 10.0 mi WNW 4.6 mph - N/A   Clear
1:54 PM 35.6 °F 30.7 °F 24.8 °F 65% 29.87 in 10.0 mi West 5.8 mph - N/A   Clear
2:14 PM 35.6 °F 28.6 °F 24.8 °F 65% 29.88 in 10.0 mi West 9.2 mph - N/A   Clear
2:34 PM 37.4 °F 30.8 °F 23.0 °F 56% 29.88 in 10.0 mi West 9.2 mph 16.1 mph N/A   Clear
2:54 PM 35.6 °F 27.5 °F 23.0 °F 60% 29.89 in 10.0 mi West 11.5 mph - N/A   Clear
3:14 PM 35.6 °F 28.6 °F 23.0 °F 60% 29.90 in 10.0 mi West 9.2 mph - N/A   Clear
3:34 PM 35.6 °F 27.1 °F 21.2 °F 56% 29.90 in 10.0 mi WNW 12.7 mph - N/A   Clear
3:53 PM 35.6 °F 29.2 °F 21.2 °F 56% 29.90 in 10.0 mi WNW 8.1 mph - N/A   Clear
4:14 PM 35.6 °F 31.7 °F 21.2 °F 56% 29.91 in 10.0 mi West 4.6 mph - N/A   Clear
4:34 PM 33.8 °F 27.7 °F 21.2 °F 60% 29.91 in 10.0 mi West 6.9 mph - N/A   Clear
5:13 PM 32.0 °F 28.7 °F 21.2 °F 64% 29.91 in 10.0 mi WSW 3.5 mph - N/A   Clear
5:34 PM 30.2 °F 24.3 °F 21.2 °F 69% 29.91 in 10.0 mi West 5.8 mph - N/A   Clear
5:54 PM 30.2 °F 24.3 °F 19.4 °F 64% 29.91 in 10.0 mi WNW 5.8 mph - N/A   Clear
6:14 PM 30.2 °F 24.3 °F 19.4 °F 64% 29.91 in 10.0 mi West 5.8 mph - N/A   Clear
6:34 PM 28.4 °F 23.3 °F 19.4 °F 69% 29.91 in 10.0 mi WSW 4.6 mph - N/A   Clear
6:54 PM 28.4 °F 21.2 °F 19.4 °F 69% 29.91 in 10.0 mi West 6.9 mph - N/A   Clear
7:14 PM 30.2 °F 22.6 °F 19.4 °F 64% 29.91 in 10.0 mi WSW 8.1 mph - N/A   Clear
7:34 PM 28.4 °F 23.3 °F 19.4 °F 69% 29.92 in 10.0 mi West 4.6 mph - N/A   Clear
7:54 PM 30.2 °F 25.4 °F 19.4 °F 64% 29.92 in 10.0 mi West 4.6 mph - N/A   Clear
8:14 PM 30.2 °F 26.7 °F 19.4 °F 64% 29.92 in 10.0 mi WSW 3.5 mph - N/A   Clear
8:34 PM 28.4 °F 23.3 °F 19.4 °F 69% 29.92 in 10.0 mi West 4.6 mph - N/A   Scattered Clouds
8:54 PM 28.4 °F 24.6 °F 19.4 °F 69% 29.92 in 10.0 mi WSW 3.5 mph - N/A   Scattered Clouds
9:14 PM 30.2 °F 24.3 °F 19.4 °F 64% 29.93 in 10.0 mi WSW 5.8 mph - N/A   Scattered Clouds
9:34 PM 30.2 °F 22.6 °F 19.4 °F 64% 29.93 in 10.0 mi West 8.1 mph - N/A   Scattered Clouds
9:54 PM 30.2 °F - 19.4 °F 64% 29.93 in 10.0 mi Calm Calm - N/A   Clear
10:14 PM 28.4 °F - 19.4 °F 69% 29.93 in 10.0 mi Calm Calm - N/A   Clear
10:34 PM 26.6 °F - 19.4 °F 74% 29.94 in 10.0 mi Calm Calm - N/A   Clear
10:54 PM 26.6 °F - 19.4 °F 74% 29.93 in 10.0 mi Calm Calm - N/A   Scattered Clouds
11:14 PM 24.8 °F - 17.6 °F 74% 29.93 in 10.0 mi Calm Calm - N/A   Mostly Cloudy
11:33 PM 23.0 °F - 17.6 °F 80% 29.93 in 10.0 mi Calm Calm - N/A   Mostly Cloudy
11:54 PM 24.8 °F 20.5 °F 17.6 °F 74% 29.92 in 10.0 mi SSW 3.5 mph - N/A   Scattered Clouds